Marion Regional, IL

8:30 PM CDT on April 26, 2017 (GMT -0500)
Williamson County Regional

Weather History for KMWA - March, 2013

Change the Weather History Date:

Wednesday, March 6, 2013

  Actual Average Record
Temperature  
Mean Temperature 36 °F -  
Max Temperature 39 °F 50 °F 75 °F (2009)
Min Temperature 32 °F 28 °F -8 °F (1978)
Degree Days  
Heating Degree Days 30    
Moisture  
Dew Point 26 °F    
Average Humidity 72    
Maximum Humidity 87    
Minimum Humidity 60    
Precipitation  
Precipitation 0.00 in - - ()
Sea Level Pressure  
Sea Level Pressure 30.26 in    
Wind  
Wind Speed 11 mph (NNW)    
Max Wind Speed 17 mph    
Max Gust Speed 29 mph    
Visibility 12 miles    
Events Snow    
Averages and records for this station are not official NWS values.
T = Trace of Precipitation, MM = Missing Value Source: NWS Daily Summary

Daily Weather History Graph

Daily Weather History Graph

Search for Another Location

Airport or City:

Trip Planner

Search our weather history database for the weather conditions in past years. The results will help you decide how hot, cold, wet, or windy it might be!

Date:

Astronomy

Mar. 06, 2013 Rise Set
Actual Time 6:20 AM CST 5:54 PM CST
Civil Twilight 5:53 AM CST 6:21 PM CST
Nautical Twilight 5:23 AM CST 6:51 PM CST
Astronomical Twilight 4:53 AM CST 7:22 PM CST
Moon 2:24 AM CST (3/6) 12:41 PM CST (3/6)
Length of Visible Light 12h 27m
Length of Day
11h 34m
Waning Crescent, 29% of the Moon is Illuminated
Mar 6
Waning Crescent
Mar 11
New
Mar 19
First Quarter
Mar 27
Full
Apr 2
Last Quarter

Hourly Weather History & Observations

Time (CST) Temp. Windchill Dew Point Humidity Pressure Visibility Wind Dir Wind Speed Gust Speed Precip Events Conditions
12:15 AM 33.8 °F 24.8 °F 28.4 °F 81% 30.07 in 10.0 mi NW 12.7 mph 23.0 mph N/A   Overcast
12:35 AM 33.8 °F 26.4 °F 28.4 °F 81% 30.09 in 7.0 mi NW 9.2 mph 17.3 mph N/A Snow Light Snow
12:55 AM 33.8 °F 24.8 °F 26.6 °F 75% 30.10 in 10.0 mi NW 12.7 mph 25.3 mph N/A   Overcast
1:15 AM 33.8 °F 25.8 °F 24.8 °F 70% 30.10 in 10.0 mi NW 10.4 mph 28.8 mph N/A   Overcast
1:35 AM 33.8 °F 23.9 °F 23.0 °F 65% 30.10 in 10.0 mi NW 15.0 mph 25.3 mph N/A   Overcast
1:55 AM 33.8 °F 24.8 °F 23.0 °F 65% 30.11 in 10.0 mi NW 12.7 mph 26.5 mph N/A   Overcast
2:15 AM 33.8 °F 26.4 °F 23.0 °F 65% 30.11 in 10.0 mi NW 9.2 mph 24.2 mph N/A   Overcast
2:35 AM 33.8 °F 25.3 °F 23.0 °F 65% 30.12 in 10.0 mi NW 11.5 mph 19.6 mph N/A   Overcast
2:55 AM 33.8 °F 23.2 °F 23.0 °F 65% 30.12 in 10.0 mi NW 17.3 mph 25.3 mph N/A   Overcast
3:15 AM 33.8 °F 24.3 °F 23.0 °F 65% 30.13 in 10.0 mi NW 13.8 mph 25.3 mph N/A   Overcast
3:35 AM 33.8 °F 23.9 °F 23.0 °F 65% 30.14 in 10.0 mi NW 15.0 mph 23.0 mph N/A   Overcast
3:55 AM 33.8 °F 23.9 °F 23.0 °F 65% 30.15 in 10.0 mi NW 15.0 mph 26.5 mph N/A   Overcast
4:15 AM 33.8 °F 25.3 °F 23.0 °F 65% 30.16 in 10.0 mi NW 11.5 mph 20.7 mph N/A   Overcast
4:35 AM 33.8 °F 25.8 °F 24.8 °F 70% 30.17 in 10.0 mi NW 10.4 mph 20.7 mph N/A   Overcast
4:55 AM 33.8 °F 27.0 °F 23.0 °F 65% 30.18 in 10.0 mi NW 8.1 mph 24.2 mph N/A   Overcast
5:15 AM 33.8 °F 25.8 °F 24.8 °F 70% 30.19 in 10.0 mi NW 10.4 mph 24.2 mph N/A   Overcast
5:35 AM 33.8 °F 24.3 °F 24.8 °F 70% 30.21 in 10.0 mi NW 13.8 mph 24.2 mph N/A   Overcast
6:52 AM 33.8 °F 23.9 °F 24.8 °F 70% 30.24 in 20.0 mi NW 15.0 mph - N/A   Overcast
7:53 AM 33.8 °F 23.9 °F 24.8 °F 70% 30.29 in 20.0 mi NW 15.0 mph - N/A   Overcast
8:56 AM 33.8 °F 23.9 °F 24.8 °F 70% 30.31 in 20.0 mi NNW 15.0 mph 20.7 mph N/A   Overcast
9:54 AM 33.8 °F 23.5 °F 24.8 °F 70% 30.33 in 20.0 mi NNW 16.1 mph 23.0 mph N/A   Overcast
10:53 AM 35.6 °F 26.2 °F 24.8 °F 65% 30.35 in 20.0 mi NNW 15.0 mph - N/A   Overcast
11:53 AM 37.4 °F 28.2 °F 24.8 °F 60% 30.35 in 20.0 mi NNW 16.1 mph - N/A   Overcast
12:53 PM 37.4 °F 28.2 °F 26.6 °F 65% 30.33 in 20.0 mi North 16.1 mph - N/A   Mostly Cloudy
1:47 PM 39.2 °F 32.0 °F 26.6 °F 61% 30.31 in 20.0 mi North 11.5 mph - N/A   Mostly Cloudy
3:50 PM 39.2 °F 32.0 °F 26.6 °F 61% 30.33 in 20.0 mi NW 11.5 mph - N/A   Overcast
4:55 PM 39.2 °F 32.0 °F 26.6 °F 61% 30.33 in 20.0 mi North 11.5 mph - N/A   Overcast
5:45 PM 39.2 °F 33.6 °F 26.6 °F 61% 30.33 in 20.0 mi North 8.1 mph - N/A   Mostly Cloudy
7:15 PM 35.6 °F 32.8 °F 28.4 °F 75% 30.35 in 10.0 mi North 3.5 mph - N/A   Overcast
7:35 PM 37.4 °F 34.9 °F 28.4 °F 70% 30.35 in 10.0 mi North 3.5 mph - N/A   Overcast
7:55 PM 35.6 °F 30.7 °F 28.4 °F 75% 30.35 in 10.0 mi North 5.8 mph - N/A   Overcast
8:15 PM 35.6 °F 31.7 °F 28.4 °F 75% 30.35 in 10.0 mi North 4.6 mph - N/A   Overcast
8:35 PM 35.6 °F 31.7 °F 28.4 °F 75% 30.35 in 10.0 mi North 4.6 mph - N/A   Overcast
8:55 PM 35.6 °F 30.7 °F 30.2 °F 81% 30.35 in 10.0 mi NNE 5.8 mph - N/A   Overcast
9:15 PM 35.6 °F 31.7 °F 30.2 °F 81% 30.35 in 10.0 mi NNE 4.6 mph - N/A   Overcast
9:35 PM 35.6 °F 29.2 °F 28.4 °F 75% 30.35 in 10.0 mi NE 8.1 mph - N/A   Overcast
9:55 PM 33.8 °F 29.6 °F 28.4 °F 81% 30.35 in 10.0 mi NE 4.6 mph - N/A   Overcast
10:15 PM 33.8 °F 29.6 °F 28.4 °F 81% 30.35 in 10.0 mi NE 4.6 mph - N/A   Overcast
10:35 PM 33.8 °F - 28.4 °F 81% 30.35 in 10.0 mi Calm Calm - N/A   Overcast
10:55 PM 32.0 °F 27.5 °F 28.4 °F 87% 30.35 in 10.0 mi NNE 4.6 mph - N/A   Mostly Cloudy
11:15 PM 32.0 °F 28.7 °F 28.4 °F 87% 30.35 in 10.0 mi NNE 3.5 mph - N/A   Scattered Clouds
11:35 PM 32.0 °F - 28.4 °F 87% 30.35 in 10.0 mi Calm Calm - N/A   Clear
11:55 PM 32.0 °F 28.7 °F 28.4 °F 87% 30.35 in 10.0 mi NNE 3.5 mph - N/A   Clear